Weather History for Swainsboro, GA

Change the Weather History Date:

Wednesday, October 31, 2012

  Actual Average Record
Temperature  
Mean Temperature 55 °F -  
Max Temperature 68 °F 73 °F 80 °F (2013)
Min Temperature 42 °F 50 °F 42 °F (2014)
Degree Days  
Heating Degree Days 10    
Growing Degree Days 5 (Base 50)    
Moisture  
Dew Point 32 °F    
Average Humidity 48    
Maximum Humidity 76    
Minimum Humidity 24    
Precipitation  
Precipitation 0.00 in - - ()
Sea Level Pressure  
Sea Level Pressure 29.86 in    
Wind  
Wind Speed 8 mph ()    
Max Wind Speed 22 mph    
Max Gust Speed 28 mph    
Visibility 10.0 miles    
Events      
Averages and records for this station are not official NWS values.
T = Trace of Precipitation, MM = Missing Value Source: Averaged Metar Reports

Daily Weather History Graph

Daily Weather History Graph

Search for Another Location

Airport:

Trip Planner

Search our weather history database for the weather conditions in past years. The results will help you decide how hot, cold, wet, or windy it might be!

Date:

Astronomy

Oct. 31, 2012 Rise Set
Actual Time 7:46 AM EDT 6:39 PM EDT
Civil Twilight 7:21 AM EDT 7:04 PM EDT
Nautical Twilight 6:52 AM EDT 7:33 PM EDT
Astronomical Twilight 6:23 AM EDT 8:02 PM EDT
Moon 7:55 PM EDT (10/31) 9:20 AM EDT (10/31)
Length of Visible Light 11h 43m
Length of Day
10h 52m
Full, 97% of the Moon is Illuminated
Oct 31
Full
Nov 6
Last Quarter
Nov 13
New
Nov 20
First Quarter
Nov 28
Full

Hourly Weather History & Observations

Time (EDT) Temp. Windchill Dew Point Humidity Pressure Visibility Wind Dir Wind Speed Gust Speed Precip Events Conditions
12:15 AM 50.0 °F - 26.6 °F 40% 29.83 in 10.0 mi WNW 6.9 mph - N/A   Clear
12:35 AM 50.0 °F - 26.6 °F 40% 29.83 in 10.0 mi WNW 6.9 mph - N/A   Clear
12:55 AM 48.2 °F - 26.6 °F 43% 29.83 in 10.0 mi West 6.9 mph - N/A   Clear
1:15 AM 46.4 °F 42.4 °F 28.4 °F 50% 29.83 in 10.0 mi West 8.1 mph - N/A   Clear
1:35 AM 46.4 °F 42.9 °F 28.4 °F 50% 29.83 in 10.0 mi WNW 6.9 mph - N/A   Clear
1:55 AM 46.4 °F 42.9 °F 28.4 °F 50% 29.83 in 10.0 mi West 6.9 mph - N/A   Clear
2:15 AM 46.4 °F 42.4 °F 30.2 °F 53% 29.83 in 10.0 mi WNW 8.1 mph - N/A   Clear
2:35 AM 46.4 °F 42.4 °F 30.2 °F 53% 29.83 in 10.0 mi West 8.1 mph - N/A   Clear
2:55 AM 44.6 °F 40.2 °F 30.2 °F 57% 29.83 in 10.0 mi West 8.1 mph - N/A   Clear
3:15 AM 44.6 °F 40.7 °F 30.2 °F 57% 29.84 in 10.0 mi West 6.9 mph - N/A   Clear
3:35 AM 42.8 °F 38.6 °F 30.2 °F 61% 29.84 in 10.0 mi West 6.9 mph - N/A   Clear
3:55 AM 42.8 °F 38.6 °F 30.2 °F 61% 29.84 in 10.0 mi West 6.9 mph - N/A   Clear
4:15 AM 42.8 °F 39.3 °F 30.2 °F 61% 29.84 in 10.0 mi West 5.8 mph - N/A   Clear
4:35 AM 42.8 °F 39.3 °F 30.2 °F 61% 29.85 in 10.0 mi West 5.8 mph - N/A   Clear
4:55 AM 42.8 °F 39.3 °F 30.2 °F 61% 29.85 in 10.0 mi West 5.8 mph - N/A   Clear
5:15 AM 42.8 °F 38.6 °F 32.0 °F 66% 29.85 in 10.0 mi West 6.9 mph - N/A   Clear
5:35 AM 42.8 °F 38.0 °F 32.0 °F 66% 29.86 in 10.0 mi West 8.1 mph - N/A   Clear
5:55 AM 42.8 °F 38.6 °F 32.0 °F 66% 29.86 in 10.0 mi West 6.9 mph - N/A   Clear
6:15 AM 42.8 °F 39.3 °F 32.0 °F 66% 29.86 in 10.0 mi West 5.8 mph - N/A   Clear
6:35 AM 42.8 °F 38.6 °F 32.0 °F 66% 29.86 in 10.0 mi West 6.9 mph - N/A   Clear
6:55 AM 42.8 °F 38.6 °F 32.0 °F 66% 29.86 in 10.0 mi West 6.9 mph - N/A   Clear
7:15 AM 42.8 °F 37.5 °F 32.0 °F 66% 29.87 in 10.0 mi West 9.2 mph - N/A   Clear
7:35 AM 42.8 °F 39.3 °F 32.0 °F 66% 29.87 in 10.0 mi West 5.8 mph - N/A   Clear
7:55 AM 42.8 °F 38.6 °F 32.0 °F 66% 29.88 in 10.0 mi West 6.9 mph - N/A   Clear
8:15 AM 42.8 °F 38.6 °F 32.0 °F 66% 29.88 in 10.0 mi West 6.9 mph - N/A   Clear
8:35 AM 42.8 °F 38.6 °F 32.0 °F 66% 29.88 in 10.0 mi West 6.9 mph - N/A   Clear
8:55 AM 44.6 °F 40.7 °F 32.0 °F 61% 29.89 in 10.0 mi West 6.9 mph - N/A   Clear
9:15 AM 46.4 °F 41.1 °F 32.0 °F 57% 29.89 in 10.0 mi West 11.5 mph 17.3 mph N/A   Clear
9:35 AM 50.0 °F - 32.0 °F 50% 29.89 in 10.0 mi WNW 9.2 mph 16.1 mph N/A   Clear
9:55 AM 50.0 °F - 32.0 °F 50% 29.90 in 10.0 mi WNW 11.5 mph 23.0 mph N/A   Clear
10:15 AM 51.8 °F - 30.2 °F 44% 29.90 in 10.0 mi WNW 15.0 mph 23.0 mph N/A   Clear
10:35 AM 53.6 °F - 28.4 °F 38% 29.90 in 10.0 mi WNW 16.1 mph 26.5 mph N/A   Clear
10:55 AM 53.6 °F - 26.6 °F 35% 29.90 in 10.0 mi WNW 17.3 mph 23.0 mph N/A   Clear
11:15 AM 55.4 °F - 26.6 °F 33% 29.89 in 10.0 mi WNW 16.1 mph 25.3 mph N/A   Clear
11:35 AM 57.2 °F - 26.6 °F 31% 29.90 in 10.0 mi WNW 21.9 mph 26.5 mph N/A   Clear
11:55 AM 59.0 °F - 26.6 °F 29% 29.90 in 10.0 mi WNW 15.0 mph 25.3 mph N/A   Clear
12:15 PM 59.0 °F - 28.4 °F 31% 29.89 in 10.0 mi WNW 16.1 mph 20.7 mph N/A   Clear
12:35 PM 60.8 °F - 28.4 °F 29% 29.88 in 10.0 mi West 16.1 mph 21.9 mph N/A   Clear
12:55 PM 60.8 °F - 28.4 °F 29% 29.88 in 10.0 mi West 13.8 mph 24.2 mph N/A   Clear
1:15 PM 62.6 °F - 28.4 °F 27% 29.87 in 10.0 mi West 13.8 mph 24.2 mph N/A   Clear
1:35 PM 62.6 °F - 28.4 °F 27% 29.87 in 10.0 mi West 13.8 mph 23.0 mph N/A   Clear
1:55 PM 64.4 °F - 28.4 °F 26% 29.86 in 10.0 mi West 16.1 mph 26.5 mph N/A   Clear
2:15 PM 64.4 °F - 28.4 °F 26% 29.85 in 10.0 mi WNW 13.8 mph 25.3 mph N/A   Clear
2:35 PM 66.2 °F - 28.4 °F 24% 29.84 in 10.0 mi West 15.0 mph 25.3 mph N/A   Clear
3:15 PM 68.0 °F - 32.0 °F 26% 29.83 in 10.0 mi West 11.5 mph 24.2 mph N/A   Clear
3:35 PM 68.0 °F - 32.0 °F 26% 29.83 in 10.0 mi WNW 10.4 mph 24.2 mph N/A   Clear
3:55 PM 68.0 °F - 32.0 °F 26% 29.82 in 10.0 mi WNW 13.8 mph 27.6 mph N/A   Clear
4:15 PM 68.0 °F - 32.0 °F 26% 29.82 in 10.0 mi WNW 17.3 mph 24.2 mph N/A   Clear
4:35 PM 68.0 °F - 32.0 °F 26% 29.82 in 10.0 mi WNW 12.7 mph 23.0 mph N/A   Clear
4:55 PM 68.0 °F - 32.0 °F 26% 29.82 in 10.0 mi WNW 13.8 mph 23.0 mph N/A   Clear
5:15 PM 68.0 °F - 32.0 °F 26% 29.82 in 10.0 mi WNW 11.5 mph 21.9 mph N/A   Clear
5:35 PM 68.0 °F - 33.8 °F 28% 29.82 in 10.0 mi West 11.5 mph 18.4 mph N/A   Clear
5:55 PM 66.2 °F - 33.8 °F 30% 29.82 in 10.0 mi West 8.1 mph - N/A   Clear
6:15 PM 64.4 °F - 33.8 °F 32% 29.83 in 10.0 mi West 11.5 mph 17.3 mph N/A   Clear
6:35 PM 64.4 °F - 33.8 °F 32% 29.83 in 10.0 mi WNW 9.2 mph - N/A   Clear
6:55 PM 62.6 °F - 33.8 °F 34% 29.84 in 10.0 mi WNW 5.8 mph - N/A   Clear
7:15 PM 60.8 °F - 33.8 °F 36% 29.84 in 10.0 mi WNW 3.5 mph - N/A   Clear
7:35 PM 57.2 °F - 33.8 °F 41% 29.84 in 10.0 mi WNW 3.5 mph - N/A   Clear
7:55 PM 53.6 °F - 35.6 °F 51% 29.85 in 10.0 mi NW 4.6 mph - N/A   Clear
8:15 PM 51.8 °F - 35.6 °F 54% 29.85 in 10.0 mi Calm Calm - N/A   Clear
8:35 PM 51.8 °F - 35.6 °F 54% 29.85 in 10.0 mi Calm Calm - N/A   Clear
8:55 PM 50.0 °F - 35.6 °F 58% 29.86 in 10.0 mi Calm Calm - N/A   Clear
9:15 PM 50.0 °F - 35.6 °F 58% 29.87 in 10.0 mi Calm Calm - N/A   Clear
9:35 PM 50.0 °F - 35.6 °F 58% 29.87 in 10.0 mi Calm Calm - N/A   Clear
9:55 PM 46.4 °F - 37.4 °F 71% 29.87 in 10.0 mi Calm Calm - N/A   Clear
10:15 PM 44.6 °F - 37.4 °F 76% 29.88 in 10.0 mi Calm Calm - N/A   Clear
10:35 PM 46.4 °F - 37.4 °F 71% 29.88 in 10.0 mi Calm Calm - N/A   Clear
10:55 PM 48.2 °F - 37.4 °F 66% 29.88 in 10.0 mi Calm Calm - N/A   Clear
11:15 PM 44.6 °F - 37.4 °F 76% 29.89 in 10.0 mi Calm Calm - N/A   Clear
11:35 PM 44.6 °F - 37.4 °F 76% 29.89 in 10.0 mi Calm Calm - N/A   Clear